Tracking 31027 objects as of 19-Jul-2025
HD Live streaming from Space Station
objects crossing your sky now

STARLINK-31654

Track STARLINK-31654 now!
10-day predictions
STARLINK-31654 is classified as:


NORAD ID: 59858
Int'l Code: 2024-098A
Perigee: 489.7 km
Apogee: 490.7 km
Inclination: 43.0 °
Period: 94.3 minutes
Semi major axis: 6861 km
RCS: Unknown
Launch date: May 24, 2024
Source: United States (US)
Launch site: AIR FORCE EASTERN TEST RANGE (AFETR)
Your satellite tracking list
COSMOS 1656
Track 1 satellite(s)




NASA's NSSDC Master Catalog

Two Line Element Set (TLE):
1 59858U 24098A   25199.22440821  .00000325  00000-0  21334-4 0  9994
2 59858  43.0001 154.7085 0000668 313.6495  46.4301 15.27576464 66069
Source of the keplerian elements: AFSPC